TRSI-SAT (44831 NORAD) Tracking and Keplerian Element Data

This shows tracking and keplerian element data for the satellite.

Feedback or suggestion? Click here.




ElementValue
Catalog44831
NameTRSI-SAT
Epoch Orbit1755
Epoch Day87.41904501
Epoch Year2020
RAAN316.1889
Inclination96.9885
Eccentricity0.003362
Argument of Perigee187.6005
Mean Anonmoly172.4754
Mean Motion15.70823847
Decay Rate0.00041756
L11 44831U 19084H 20087.41904501 .00041756 00000-0 32530-3 0 9992
L22 44831 96.9885 316.1889 0033620 187.6005 172.4754 15.70823847 17557

Live tracking and technical data element details for TRSI-SAT (NORAD 44831). TRSI-SAT can be tracked NOW for your location showing map with azimuth and elevation plus other details from your city location.

Track the satellite on the map from your city or location and see movement details for azimuth, elevation, latitude, longitude, range, height, and movement on the map or in text.







IsCatalogInMostPopularTable: catalog: 44831, numindb: 43
Update: records affected: 1



GetName: 44831 TRSI-SAT

Hit Count: updated at: Sat, 28 Mar 2020 20:57:20 GMT